Tracking 27428 objects as of 1-Jun-2023
HD Live streaming from Space Station
objects crossing your sky now

SL-14 DEB

Track SL-14 DEB now!
10-day predictions


NORAD ID: 45305
Int'l Code: 1991-056AT
Perigee: 1,148.3 km
Apogee: 1,191.7 km
Inclination: 82.6 °
Period: 108.6 minutes
Semi major axis: 7540 km
RCS: Unknown
Launch date: August 15, 1991
Source: Commonwealth of Independent States (former USSR) (CIS)
Launch site: PLESETSK MISSILE AND SPACE COMPLEX (PKMTR)

Note: This is SATELLITE DEBRIS
Your satellite tracking list
Your tracking list is empty




NASA's NSSDC Master Catalog

Two Line Element Set (TLE):
1 45305U 91056AT  23151.57391528  .00001370  00000-0  30931-2 0  9999
2 45305  82.5679 196.6323 0028774 199.8296 160.1715 13.25749708157604
Source of the keplerian elements: AFSPC